QPF
0.14 0.17 0.19 0.21 0.22 0.19 0.13 0.13 0.14 0.18 0.14 0.12 0.13 0.17 0.17 0.18 0.18 0.15 0.12 0.09 0.07 0.08 0.08 0.05 0.04 0.04 0.03 0.03 0.03 0.03 0.04 0.04 0.03 0.03 0.02 0.02 0.02 0.02 0.02 0.02 0.02 0.02 0.02
0.17 0.21 0.23 0.25 0.28 0.29 0.26 0.21 0.23 0.25 0.21 0.20 0.20 0.19 0.20 0.23 0.21 0.15 0.13 0.11 0.08 0.06 0.05 0.05 0.05 0.04 0.04 0.03 0.03 0.03 0.03 0.04 0.03 0.02 0.02 0.02 0.01 0.01 0.01 0.02 0.02 0.02 0.02
0.24 0.22 0.28 0.27 0.30 0.32 0.29 0.28 0.26 0.22 0.22 0.20 0.18 0.17 0.17 0.17 0.14 0.12 0.10 0.09 0.08 0.08 0.07 0.05 0.04 0.04 0.04 0.04 0.05 0.04 0.03 0.03 0.02 0.01 0.02 0.02 0.01 0.01 0.01 0.01 0.02 0.02 0.02
0.37 0.33 0.40 0.30 0.24 0.27 0.28 0.26 0.24 0.24 0.24 0.25 0.18 0.14 0.15 0.15 0.14 0.13 0.12 0.10 0.08 0.06 0.06 0.05 0.04 0.04 0.05 0.05 0.04 0.04 0.04 0.03 0.02 0.02 0.02 0.02 0.01 0.01 0.01 0.02 0.02 0.02 0.02
0.34 0.32 0.31 0.28 0.20 0.21 0.22 0.22 0.22 0.21 0.24 0.25 0.19 0.15 0.14 0.11 0.10 0.11 0.11 0.10 0.08 0.07 0.06 0.06 0.05 0.05 0.06 0.05 0.04 0.04 0.05 0.05 0.04 0.04 0.03 0.02 0.02 0.02 0.01 0.01 0.01 0.01 0.01
0.25 0.23 0.18 0.17 0.18 0.21 0.23 0.22 0.25 0.22 0.21 0.19 0.19 0.19 0.16 0.11 0.09 0.09 0.08 0.07 0.06 0.06 0.06 0.06 0.06 0.06 0.06 0.06 0.06 0.05 0.05 0.05 0.05 0.04 0.03 0.03 0.02 0.01 0.02 0.02 0.01 0.01 0.02
0.17 0.19 0.15 0.14 0.15 0.19 0.23 0.22 0.23 0.22 0.19 0.18 0.20 0.20 0.18 0.13 0.09 0.08 0.08 0.08 0.07 0.06 0.05 0.05 0.05 0.06 0.06 0.07 0.08 0.06 0.05 0.04 0.04 0.03 0.02 0.02 0.02 0.02 0.02 0.02 0.01 0.02 0.02
0.14 0.16 0.14 0.13 0.12 0.14 0.19 0.22 0.23 0.22 0.19 0.16 0.17 0.16 0.13 0.12 0.10 0.08 0.09 0.08 0.08 0.07 0.08 0.07 0.05 0.04 0.04 0.04 0.04 0.04 0.03 0.03 0.03 0.02 0.02 0.02 0.01 0.02 0.02 0.02 0.01 0.01 0.02
0.12 0.14 0.15 0.15 0.14 0.15 0.17 0.19 0.21 0.20 0.18 0.19 0.16 0.15 0.12 0.09 0.07 0.06 0.05 0.06 0.07 0.09 0.08 0.07 0.05 0.04 0.04 0.03 0.02 0.03 0.03 0.03 0.03 0.03 0.02 0.01 0.01 0.01 0.01 0.01 0.01 0.01 0.01
0.14 0.15 0.18 0.19 0.17 0.16 0.16 0.16 0.18 0.20 0.21 0.22 0.19 0.15 0.11 0.07 0.07 0.06 0.06 0.06 0.06 0.06 0.07 0.06 0.06 0.05 0.05 0.04 0.04 0.04 0.04 0.04 0.03 0.02 0.01 0.01 0.01 0.01 0.01 0.01 0.01 0.01 0.01
0.12 0.11 0.11 0.14 0.15 0.15 0.13 0.12 0.14 0.17 0.20 0.22 0.21 0.17 0.13 0.11 0.08 0.06 0.06 0.07 0.07 0.07 0.06 0.06 0.06 0.06 0.05 0.05 0.06 0.07 0.07 0.07 0.06 0.04 0.02 0.01 0.01 0.01 0.01 0.01 0.01 0.02 0.02
0.08 0.08 0.08 0.11 0.15 0.15 0.13 0.10 0.11 0.11 0.13 0.16 0.20 0.17 0.14 0.13 0.11 0.08 0.07 0.08 0.08 0.07 0.04 0.03 0.03 0.04 0.04 0.04 0.04 0.05 0.07 0.07 0.07 0.05 0.03 0.02 0.01 0.01 0.01 0.01 0.01 0.02 0.03
0.07 0.08 0.07 0.07 0.09 0.11 0.11 0.09 0.08 0.09 0.09 0.10 0.12 0.13 0.12 0.12 0.10 0.09 0.08 0.09 0.08 0.06 0.04 0.03 0.02 0.02 0.03 0.04 0.03 0.04 0.03 0.04 0.05 0.05 0.04 0.03 0.03 0.02 0.02 0.01 0.02 0.03 0.04
0.10 0.09 0.07 0.06 0.06 0.06 0.06 0.06 0.05 0.05 0.05 0.06 0.07 0.08 0.08 0.08 0.08 0.07 0.06 0.05 0.05 0.05 0.05 0.04 0.04 0.04 0.04 0.04 0.04 0.04 0.03 0.03 0.04 0.04 0.04 0.04 0.03 0.03 0.02 0.02 0.02 0.03 0.03
0.09 0.07 0.06 0.05 0.04 0.04 0.04 0.04 0.05 0.05 0.05 0.06 0.06 0.06 0.05 0.04 0.04 0.05 0.05 0.04 0.04 0.04 0.05 0.05 0.04 0.05 0.05 0.05 0.05 0.04 0.03 0.03 0.03 0.02 0.02 0.03 0.05 0.05 0.03 0.02 0.03 0.03 0.02
0.06 0.05 0.05 0.04 0.03 0.04 0.04 0.05 0.05 0.05 0.05 0.05 0.04 0.03 0.02 0.02 0.02 0.02 0.02 0.02 0.02 0.03 0.04 0.04 0.04 0.05 0.06 0.06 0.05 0.03 0.02 0.02 0.02 0.02 0.01 0.01 0.02 0.05 0.06 0.06 0.04 0.03 0.03
0.03 0.03 0.03 0.03 0.02 0.03 0.03 0.04 0.04 0.03 0.02 0.02 0.02 0.02 0.02 0.02 0.01 0.01 0.01 0.01 0.01 0.02 0.02 0.03 0.03 0.03 0.03 0.02 0.02 0.02 0.02 0.01 0.01 0.01 0.01 0.01 0.01 0.01 0.02 0.04 0.04 0.04 0.04
0.03 0.02 0.03 0.03 0.03 0.03 0.02 0.02 0.02 0.02 0.02 0.01 0.01 0.01 0.02 0.02 0.01 0.01 0.01 0.01 0.01 0.01 0.01 0.01 0.02 0.02 0.02 0.02 0.02 0.02 0.01 0.01 0.01 0.01 0.01 0.00 0.00 0.00 0.01 0.01 0.01 0.01 0.02
0.04 0.04 0.03 0.02 0.03 0.02 0.02 0.02 0.02 0.02 0.02 0.02 0.02 0.02 0.02 0.02 0.02 0.01 0.01 0.01 0.01 0.00 0.00 0.01 0.01 0.01 0.02 0.02 0.02 0.02 0.02 0.02 0.02 0.02 0.01 0.01 0.00 0.00 0.00 0.00 0.00 0.00 0.00
0.05 0.04 0.04 0.03 0.02 0.02 0.02 0.02 0.02 0.02 0.02 0.02 0.01 0.01 0.01 0.01 0.01 0.01 0.01 0.01 0.01 0.00 0.00 0.00 0.01 0.01 0.01 0.02 0.02 0.02 0.02 0.02 0.02 0.02 0.01 0.01 0.00 0.00 0.00 0.00 0.00 0.00 0.00
0.05 0.05 0.05 0.04 0.04 0.03 0.03 0.03 0.03 0.03 0.03 0.03 0.03 0.02 0.02 0.01 0.01 0.01 0.01 0.01 0.01 0.01 0.01 0.01 0.01 0.01 0.01 0.02 0.02 0.01 0.01 0.02 0.02 0.01 0.01 0.00 0.00 0.00 0.00 0.00 0.00 0.00 0.00
0.06 0.06 0.06 0.06 0.05 0.05 0.04 0.03 0.03 0.03 0.03 0.03 0.03 0.02 0.02 0.01 0.01 0.01 0.01 0.01 0.01 0.01 0.02 0.01 0.01 0.01 0.02 0.02 0.03 0.02 0.01 0.02 0.03 0.01 0.01 0.01 0.00 0.00 0.00 0.00 0.00 0.00 0.00
0.05 0.05 0.05 0.05 0.05 0.04 0.04 0.03 0.03 0.03 0.03 0.03 0.02 0.02 0.01 0.01 0.00 0.00 0.01 0.01 0.01 0.01 0.01 0.02 0.01 0.01 0.01 0.02 0.03 0.03 0.02 0.03 0.02 0.02 0.02 0.01 0.00 0.00 0.00 0.00 0.00 0.00 0.00
0.04 0.04 0.04 0.04 0.04 0.04 0.03 0.02 0.02 0.02 0.02 0.02 0.02 0.01 0.00 0.00 0.00 0.00 0.00 0.00 0.00 0.01 0.01 0.01 0.01 0.01 0.01 0.01 0.01 0.01 0.02 0.05 0.04 0.03 0.02 0.01 0.01 0.00 0.00 0.00 0.00 0.00 0.00
0.03 0.03 0.03 0.03 0.03 0.03 0.03 0.02 0.02 0.01 0.01 0.01 0.01 0.00 0.00 0.00 0.00 0.00 0.00 0.00 0.00 0.00 0.01 0.01 0.01 0.01 0.01 0.01 0.01 0.01 0.02 0.04 0.04 0.03 0.03 0.03 0.02 0.01 0.01 0.00 0.00 0.00 0.00
0.03 0.03 0.03 0.02 0.02 0.02 0.02 0.02 0.01 0.01 0.01 0.00 0.00 0.00 0.00 0.00 0.00 0.00 0.00 0.00 0.00 0.00 0.00 0.00 0.00 0.01 0.01 0.01 0.01 0.01 0.02 0.03 0.03 0.03 0.03 0.02 0.01 0.01 0.00 0.00 0.00 0.00 0.00
MSLP
1016.21 1016.37 1016.44 1016.46 1016.46 1016.50 1016.58 1016.74 1016.96 1017.22 1017.51 1017.81 1018.11 1018.39 1018.65 1018.89 1019.10 1019.28 1019.41 1019.48 1019.49 1019.45 1019.37 1019.29 1019.22 1019.20 1019.24 1019.34 1019.50 1019.68 1019.87 1020.05 1020.19 1020.30 1020.38 1020.44 1020.50 1020.56 1020.61 1020.66 1020.69 1020.69 1020.66
1016.04 1016.21 1016.31 1016.37 1016.42 1016.51 1016.65 1016.86 1017.13 1017.45 1017.80 1018.16 1018.51 1018.84 1019.14 1019.40 1019.62 1019.79 1019.91 1019.96 1019.95 1019.89 1019.81 1019.74 1019.68 1019.68 1019.73 1019.83 1019.99 1020.16 1020.34 1020.50 1020.63 1020.74 1020.82 1020.89 1020.96 1021.02 1021.08 1021.13 1021.16 1021.15 1021.10
1015.86 1016.03 1016.15 1016.25 1016.36 1016.52 1016.73 1017.02 1017.36 1017.75 1018.16 1018.58 1018.99 1019.37 1019.71 1020.01 1020.24 1020.41 1020.51 1020.55 1020.53 1020.47 1020.39 1020.32 1020.27 1020.27 1020.32 1020.42 1020.56 1020.72 1020.87 1021.01 1021.13 1021.23 1021.32 1021.39 1021.46 1021.53 1021.59 1021.64 1021.66 1021.65 1021.61
1015.72 1015.86 1015.99 1016.12 1016.29 1016.51 1016.80 1017.16 1017.58 1018.04 1018.53 1019.01 1019.48 1019.91 1020.29 1020.61 1020.87 1021.05 1021.16 1021.20 1021.18 1021.13 1021.05 1020.98 1020.94 1020.94 1020.98 1021.06 1021.17 1021.30 1021.42 1021.54 1021.65 1021.73 1021.81 1021.88 1021.95 1022.01 1022.07 1022.12 1022.14 1022.13 1022.09
1015.63 1015.73 1015.84 1015.99 1016.19 1016.46 1016.82 1017.24 1017.73 1018.25 1018.80 1019.34 1019.86 1020.34 1020.77 1021.13 1021.43 1021.64 1021.78 1021.84 1021.85 1021.81 1021.75 1021.69 1021.65 1021.64 1021.66 1021.71 1021.79 1021.88 1021.97 1022.06 1022.14 1022.21 1022.27 1022.33 1022.39 1022.44 1022.48 1022.52 1022.53 1022.53 1022.50
1015.59 1015.64 1015.72 1015.85 1016.07 1016.37 1016.76 1017.23 1017.76 1018.33 1018.93 1019.51 1020.07 1020.60 1021.07 1021.49 1021.83 1022.09 1022.29 1022.40 1022.46 1022.47 1022.44 1022.40 1022.37 1022.35 1022.34 1022.36 1022.40 1022.44 1022.49 1022.55 1022.60 1022.64 1022.69 1022.73 1022.76 1022.79 1022.81 1022.82 1022.82 1022.81 1022.79
1015.62 1015.61 1015.64 1015.74 1015.94 1016.24 1016.64 1017.13 1017.68 1018.27 1018.88 1019.49 1020.08 1020.64 1021.16 1021.62 1022.03 1022.37 1022.64 1022.83 1022.97 1023.04 1023.07 1023.07 1023.06 1023.03 1023.01 1022.99 1022.98 1022.98 1022.99 1023.01 1023.03 1023.05 1023.07 1023.08 1023.09 1023.09 1023.08 1023.05 1023.03 1023.00 1022.98
1015.72 1015.65 1015.63 1015.69 1015.85 1016.13 1016.51 1016.97 1017.51 1018.08 1018.68 1019.29 1019.89 1020.47 1021.02 1021.54 1022.02 1022.45 1022.81 1023.11 1023.34 1023.51 1023.62 1023.68 1023.69 1023.67 1023.63 1023.59 1023.54 1023.50 1023.46 1023.44 1023.43 1023.43 1023.43 1023.42 1023.40 1023.37 1023.32 1023.26 1023.20 1023.15 1023.11
1015.89 1015.79 1015.72 1015.74 1015.86 1016.09 1016.42 1016.84 1017.32 1017.86 1018.42 1018.99 1019.58 1020.16 1020.73 1021.29 1021.84 1022.35 1022.81 1023.23 1023.58 1023.85 1024.05 1024.18 1024.24 1024.24 1024.20 1024.13 1024.04 1023.97 1023.90 1023.85 1023.81 1023.79 1023.77 1023.75 1023.72 1023.66 1023.58 1023.50 1023.40 1023.32 1023.25
1016.15 1016.04 1015.96 1015.94 1016.02 1016.19 1016.46 1016.81 1017.22 1017.68 1018.18 1018.70 1019.23 1019.79 1020.36 1020.94 1021.53 1022.12 1022.68 1023.20 1023.66 1024.05 1024.35 1024.55 1024.67 1024.70 1024.66 1024.58 1024.47 1024.36 1024.26 1024.19 1024.15 1024.12 1024.10 1024.08 1024.05 1023.99 1023.90 1023.79 1023.67 1023.55 1023.44
1016.50 1016.42 1016.35 1016.31 1016.35 1016.46 1016.66 1016.93 1017.26 1017.63 1018.04 1018.48 1018.96 1019.46 1020.00 1020.58 1021.19 1021.82 1022.45 1023.06 1023.62 1024.11 1024.50 1024.78 1024.95 1025.02 1024.99 1024.90 1024.78 1024.65 1024.53 1024.45 1024.41 1024.39 1024.39 1024.39 1024.38 1024.33 1024.26 1024.14 1024.01 1023.87 1023.73
1016.94 1016.91 1016.86 1016.83 1016.84 1016.90 1017.04 1017.23 1017.47 1017.75 1018.07 1018.42 1018.81 1019.24 1019.72 1020.27 1020.86 1021.51 1022.17 1022.84 1023.47 1024.04 1024.51 1024.86 1025.09 1025.18 1025.18 1025.09 1024.96 1024.81 1024.69 1024.61 1024.57 1024.58 1024.61 1024.65 1024.68 1024.68 1024.63 1024.54 1024.41 1024.26 1024.09
1017.44 1017.47 1017.46 1017.44 1017.43 1017.47 1017.55 1017.68 1017.84 1018.04 1018.27 1018.53 1018.82 1019.17 1019.58 1020.06 1020.62 1021.24 1021.91 1022.60 1023.27 1023.88 1024.41 1024.81 1025.08 1025.21 1025.22 1025.14 1025.00 1024.86 1024.73 1024.65 1024.63 1024.67 1024.74 1024.84 1024.92 1024.97 1024.97 1024.92 1024.81 1024.66 1024.49
1017.94 1018.04 1018.06 1018.07 1018.07 1018.09 1018.14 1018.22 1018.32 1018.45 1018.61 1018.79 1019.01 1019.27 1019.60 1020.01 1020.49 1021.07 1021.70 1022.38 1023.05 1023.68 1024.23 1024.67 1024.96 1025.12 1025.15 1025.08 1024.95 1024.81 1024.68 1024.61 1024.61 1024.68 1024.79 1024.94 1025.08 1025.19 1025.25 1025.24 1025.17 1025.04 1024.86
1018.42 1018.55 1018.61 1018.64 1018.65 1018.67 1018.71 1018.77 1018.85 1018.94 1019.05 1019.17 1019.33 1019.52 1019.77 1020.10 1020.52 1021.02 1021.60 1022.23 1022.88 1023.49 1024.05 1024.49 1024.81 1024.99 1025.04 1024.98 1024.86 1024.72 1024.60 1024.54 1024.55 1024.64 1024.79 1024.97 1025.16 1025.32 1025.42 1025.46 1025.42 1025.31 1025.15
1018.83 1018.98 1019.06 1019.10 1019.13 1019.17 1019.21 1019.27 1019.35 1019.44 1019.53 1019.63 1019.75 1019.90 1020.10 1020.36 1020.70 1021.13 1021.63 1022.20 1022.80 1023.39 1023.92 1024.37 1024.69 1024.88 1024.95 1024.91 1024.81 1024.68 1024.56 1024.50 1024.52 1024.61 1024.77 1024.96 1025.17 1025.35 1025.49 1025.55 1025.54 1025.45 1025.30
1019.15 1019.29 1019.38 1019.44 1019.49 1019.54 1019.61 1019.70 1019.80 1019.91 1020.02 1020.13 1020.25 1020.38 1020.54 1020.76 1021.03 1021.39 1021.83 1022.33 1022.86 1023.40 1023.91 1024.34 1024.66 1024.87 1024.95 1024.94 1024.85 1024.73 1024.63 1024.56 1024.56 1024.64 1024.77 1024.95 1025.15 1025.32 1025.45 1025.52 1025.51 1025.43 1025.30
1019.40 1019.53 1019.61 1019.68 1019.75 1019.84 1019.94 1020.06 1020.20 1020.35 1020.50 1020.64 1020.78 1020.92 1021.07 1021.26 1021.50 1021.80 1022.17 1022.60 1023.07 1023.56 1024.02 1024.43 1024.76 1024.97 1025.08 1025.09 1025.03 1024.92 1024.82 1024.74 1024.72 1024.76 1024.85 1024.98 1025.12 1025.25 1025.35 1025.38 1025.36 1025.28 1025.16
1019.64 1019.74 1019.82 1019.90 1019.99 1020.10 1020.23 1020.39 1020.57 1020.77 1020.96 1021.15 1021.32 1021.49 1021.66 1021.84 1022.05 1022.31 1022.63 1022.99 1023.41 1023.84 1024.26 1024.65 1024.96 1025.19 1025.32 1025.35 1025.31 1025.23 1025.13 1025.04 1024.98 1024.97 1025.00 1025.05 1025.12 1025.18 1025.20 1025.18 1025.12 1025.02 1024.88
1019.91 1019.99 1020.07 1020.16 1020.27 1020.40 1020.55 1020.74 1020.96 1021.18 1021.42 1021.65 1021.86 1022.06 1022.25 1022.44 1022.64 1022.88 1023.15 1023.46 1023.82 1024.20 1024.57 1024.93 1025.23 1025.46 1025.61 1025.67 1025.66 1025.60 1025.50 1025.39 1025.30 1025.23 1025.18 1025.16 1025.13 1025.10 1025.04 1024.95 1024.83 1024.68 1024.52
1020.26 1020.34 1020.43 1020.53 1020.65 1020.79 1020.96 1021.15 1021.38 1021.62 1021.88 1022.14 1022.39 1022.62 1022.83 1023.03 1023.23 1023.44 1023.68 1023.94 1024.25 1024.57 1024.90 1025.22 1025.51 1025.74 1025.90 1025.98 1025.99 1025.94 1025.85 1025.73 1025.61 1025.49 1025.37 1025.26 1025.14 1025.01 1024.86 1024.69 1024.50 1024.31 1024.11
1020.71 1020.81 1020.92 1021.04 1021.16 1021.30 1021.45 1021.64 1021.85 1022.09 1022.35 1022.62 1022.88 1023.12 1023.35 1023.56 1023.76 1023.96 1024.16 1024.39 1024.64 1024.91 1025.19 1025.47 1025.73 1025.94 1026.10 1026.20 1026.23 1026.19 1026.11 1025.98 1025.84 1025.67 1025.50 1025.32 1025.12 1024.91 1024.68 1024.43 1024.18 1023.93 1023.69
1021.25 1021.39 1021.53 1021.66 1021.78 1021.90 1022.04 1022.19 1022.37 1022.58 1022.81 1023.07 1023.32 1023.57 1023.81 1024.02 1024.22 1024.40 1024.58 1024.76 1024.96 1025.17 1025.40 1025.63 1025.85 1026.03 1026.18 1026.28 1026.31 1026.29 1026.21 1026.09 1025.93 1025.74 1025.52 1025.29 1025.04 1024.77 1024.48 1024.17 1023.86 1023.56 1023.28
1021.84 1022.02 1022.19 1022.34 1022.46 1022.56 1022.66 1022.77 1022.90 1023.07 1023.27 1023.49 1023.73 1023.97 1024.20 1024.41 1024.60 1024.76 1024.91 1025.05 1025.20 1025.35 1025.52 1025.69 1025.85 1026.00 1026.13 1026.20 1026.24 1026.21 1026.14 1026.02 1025.85 1025.65 1025.42 1025.16 1024.88 1024.58 1024.25 1023.91 1023.57 1023.22 1022.90
1022.42 1022.65 1022.85 1023.01 1023.12 1023.20 1023.27 1023.33 1023.42 1023.53 1023.69 1023.88 1024.09 1024.32 1024.54 1024.74 1024.91 1025.06 1025.17 1025.28 1025.37 1025.46 1025.56 1025.67 1025.78 1025.88 1025.96 1026.01 1026.02 1025.99 1025.92 1025.79 1025.63 1025.43 1025.20 1024.94 1024.65 1024.34 1024.01 1023.65 1023.29 1022.93 1022.58
1022.94 1023.21 1023.43 1023.60 1023.71 1023.77 1023.81 1023.84 1023.88 1023.96 1024.08 1024.25 1024.44 1024.65 1024.85 1025.04 1025.20 1025.32 1025.41 1025.47 1025.51 1025.54 1025.58 1025.62 1025.67 1025.71 1025.75 1025.76 1025.74 1025.69 1025.60 1025.47 1025.31 1025.11 1024.89 1024.64 1024.37 1024.07 1023.75 1023.40 1023.04 1022.68 1022.31
Thickness
5727 5726 5725 5723 5721 5719 5718 5717 5716 5715 5716 5716 5716 5716 5716 5715 5714 5714 5713 5712 5712 5712 5711 5710 5709 5709 5707 5705 5704 5703 5702 5700 5699 5697 5696 5695 5694 5693 5692 5691 5690 5689 5688
5723 5722 5721 5719 5718 5716 5715 5713 5713 5712 5711 5712 5711 5712 5711 5710 5708 5708 5708 5707 5707 5707 5707 5706 5705 5705 5703 5701 5700 5699 5697 5696 5695 5693 5692 5691 5690 5689 5688 5687 5686 5684 5683
5720 5719 5718 5716 5715 5713 5711 5710 5709 5707 5707 5707 5706 5706 5706 5705 5704 5703 5703 5702 5702 5701 5701 5700 5700 5699 5698 5696 5695 5694 5692 5691 5690 5689 5687 5686 5684 5683 5682 5681 5680 5679 5678
5715 5714 5713 5713 5712 5711 5709 5707 5705 5703 5702 5701 5700 5699 5699 5698 5698 5697 5696 5696 5696 5694 5694 5694 5693 5692 5691 5690 5689 5688 5687 5685 5684 5682 5681 5679 5678 5676 5675 5674 5673 5672 5671
5709 5709 5708 5708 5707 5707 5705 5703 5701 5699 5697 5696 5694 5693 5692 5692 5691 5690 5689 5688 5688 5687 5687 5686 5685 5685 5683 5683 5682 5681 5680 5678 5676 5675 5674 5672 5670 5669 5667 5666 5665 5663 5662
5702 5702 5703 5703 5703 5702 5701 5698 5695 5694 5693 5692 5690 5687 5684 5684 5684 5683 5683 5681 5680 5680 5679 5678 5678 5677 5676 5675 5674 5674 5672 5671 5669 5667 5666 5664 5662 5660 5659 5657 5656 5655 5653
5697 5696 5696 5696 5696 5696 5695 5694 5691 5688 5686 5685 5682 5677 5675 5676 5676 5676 5675 5674 5673 5672 5672 5670 5669 5669 5667 5666 5665 5664 5663 5662 5660 5659 5657 5655 5653 5652 5650 5648 5647 5645 5643
5690 5690 5690 5690 5690 5690 5689 5688 5687 5682 5679 5680 5677 5671 5666 5664 5666 5667 5667 5666 5665 5664 5663 5661 5660 5659 5658 5657 5656 5655 5653 5653 5651 5649 5647 5646 5644 5642 5640 5638 5637 5635 5633
5682 5682 5683 5683 5683 5683 5682 5681 5681 5679 5674 5673 5674 5670 5663 5658 5657 5656 5657 5657 5656 5655 5654 5652 5651 5650 5649 5648 5646 5645 5643 5642 5641 5639 5637 5636 5634 5632 5630 5628 5626 5624 5622
5673 5674 5674 5675 5675 5674 5674 5674 5674 5673 5670 5666 5666 5667 5666 5662 5654 5648 5646 5646 5646 5646 5645 5643 5641 5640 5638 5637 5635 5634 5633 5632 5631 5629 5627 5625 5623 5621 5619 5616 5614 5612 5609
5663 5664 5665 5666 5666 5665 5665 5665 5664 5664 5663 5661 5660 5658 5656 5654 5652 5646 5639 5636 5635 5634 5634 5633 5632 5630 5628 5627 5626 5624 5623 5621 5620 5618 5616 5614 5612 5610 5607 5604 5601 5599 5596
5651 5652 5653 5654 5655 5655 5655 5655 5654 5654 5654 5654 5653 5652 5649 5647 5644 5641 5635 5630 5626 5623 5623 5622 5621 5620 5618 5617 5616 5614 5612 5610 5609 5607 5605 5602 5600 5597 5594 5591 5588 5586 5583
5639 5640 5641 5642 5643 5643 5644 5644 5643 5643 5643 5642 5642 5641 5641 5640 5638 5636 5630 5622 5617 5613 5612 5610 5609 5609 5607 5606 5605 5603 5601 5600 5598 5596 5594 5591 5587 5584 5581 5578 5575 5572 5569
5626 5628 5630 5630 5631 5632 5632 5632 5631 5630 5630 5630 5630 5630 5629 5629 5629 5627 5622 5616 5608 5603 5601 5600 5599 5598 5597 5595 5594 5592 5590 5589 5587 5585 5582 5579 5575 5571 5568 5565 5562 5559 5556
5615 5616 5617 5618 5619 5619 5619 5619 5619 5617 5617 5617 5617 5617 5617 5617 5617 5616 5614 5611 5606 5597 5592 5590 5588 5588 5586 5585 5584 5582 5580 5578 5576 5573 5570 5567 5563 5560 5556 5553 5550 5547 5544
5602 5604 5605 5605 5606 5606 5606 5606 5606 5605 5605 5604 5604 5604 5604 5604 5604 5603 5602 5600 5599 5594 5585 5581 5579 5578 5576 5575 5573 5571 5570 5568 5565 5562 5559 5556 5552 5549 5545 5541 5538 5536 5533
5590 5591 5592 5592 5592 5592 5592 5593 5592 5592 5592 5591 5591 5591 5590 5590 5591 5590 5590 5589 5586 5584 5577 5571 5569 5567 5565 5564 5562 5561 5559 5557 5555 5552 5549 5546 5543 5539 5535 5532 5528 5525 5522
5577 5578 5579 5579 5579 5579 5579 5579 5579 5578 5578 5578 5578 5578 5577 5578 5577 5577 5577 5576 5574 5572 5568 5562 5557 5555 5554 5553 5551 5550 5549 5547 5545 5543 5539 5536 5533 5529 5526 5522 5519 5516 5514
5564 5565 5566 5566 5566 5566 5567 5566 5566 5565 5565 5565 5566 5565 5565 5565 5564 5563 5563 5562 5561 5560 5557 5552 5546 5543 5542 5542 5540 5539 5539 5537 5536 5533 5530 5527 5524 5521 5518 5515 5512 5509 5506
5552 5552 5553 5553 5553 5554 5554 5554 5554 5553 5553 5553 5553 5553 5553 5553 5552 5552 5551 5549 5548 5546 5543 5539 5535 5532 5531 5530 5529 5527 5526 5526 5525 5525 5522 5520 5517 5514 5511 5508 5506 5504 5501
5540 5540 5541 5541 5541 5542 5542 5542 5542 5542 5541 5541 5541 5541 5542 5542 5542 5541 5540 5537 5536 5534 5530 5526 5523 5521 5519 5518 5517 5516 5515 5514 5515 5515 5514 5512 5511 5508 5506 5503 5501 5499 5496
5529 5529 5529 5529 5530 5530 5531 5532 5532 5530 5530 5530 5530 5530 5531 5531 5531 5530 5530 5529 5527 5524 5520 5516 5513 5511 5510 5509 5508 5508 5506 5505 5505 5507 5506 5505 5505 5503 5502 5500 5498 5496 5493
5518 5518 5518 5518 5518 5519 5521 5522 5522 5522 5521 5520 5520 5521 5522 5521 5521 5520 5520 5520 5518 5516 5514 5510 5506 5504 5503 5502 5501 5500 5499 5498 5498 5500 5499 5498 5498 5497 5498 5497 5495 5493 5491
5510 5509 5509 5510 5510 5510 5512 5514 5514 5513 5512 5512 5512 5512 5511 5511 5512 5511 5511 5509 5507 5506 5505 5503 5501 5499 5499 5497 5496 5495 5493 5493 5494 5495 5495 5493 5493 5492 5494 5494 5493 5491 5489
5503 5502 5502 5502 5502 5503 5505 5506 5506 5505 5504 5503 5504 5504 5504 5503 5503 5503 5502 5499 5498 5497 5498 5497 5496 5495 5494 5494 5492 5490 5489 5487 5487 5489 5491 5489 5488 5487 5489 5490 5491 5490 5488
5496 5496 5495 5494 5495 5495 5497 5498 5499 5498 5496 5495 5496 5496 5496 5496 5496 5495 5493 5491 5489 5489 5490 5490 5491 5491 5491 5490 5489 5487 5486 5484 5483 5484 5488 5486 5485 5484 5483 5487 5488 5488 5487